TimeEDT,TemperatureF,Dew PointF,Humidity,Sea Level PressureIn,VisibilityMPH,Wind Direction,Wind SpeedMPH,Gust SpeedMPH,PrecipitationIn,Events,Conditions,WindDirDegrees,DateUTC
12:53 AM,75.0,68.0,79,29.87,10.0,Calm,Calm,-,N/A,,Partly Cloudy,0,2013-09-02 04:53:00
1:53 AM,73.0,68.0,84,29.86,10.0,SW,3.5,-,N/A,,Clear,220,2013-09-02 05:53:00
2:18 AM,71.6,68.0,88,29.91,10.0,South,3.5,-,N/A,,Mostly Cloudy,170,2013-09-02 06:18:00
2:53 AM,73.0,68.0,84,29.87,10.0,SSW,4.6,-,N/A,,Overcast,210,2013-09-02 06:53:00
3:22 AM,73.4,68.0,83,29.91,10.0,SW,4.6,-,N/A,,Overcast,230,2013-09-02 07:22:00
3:30 AM,73.4,68.0,83,29.91,10.0,SSW,3.5,-,N/A,,Overcast,200,2013-09-02 07:30:00
3:53 AM,73.0,66.9,81,29.86,10.0,Calm,Calm,-,N/A,,Overcast,0,2013-09-02 07:53:00
4:11 AM,73.4,66.2,78,29.91,10.0,Calm,Calm,-,N/A,,Overcast,0,2013-09-02 08:11:00
4:53 AM,71.1,66.9,87,29.86,10.0,Calm,Calm,-,N/A,,Clear,0,2013-09-02 08:53:00
5:53 AM,70.0,66.9,90,29.86,10.0,Calm,Calm,-,N/A,,Clear,0,2013-09-02 09:53:00
6:53 AM,69.1,66.0,90,29.87,10.0,SSW,4.6,-,N/A,,Clear,200,2013-09-02 10:53:00
7:53 AM,70.0,66.0,87,29.88,10.0,Calm,Calm,-,N/A,,Clear,0,2013-09-02 11:53:00
8:53 AM,73.0,66.9,81,29.90,10.0,WSW,5.8,-,N/A,,Clear,240,2013-09-02 12:53:00
9:20 AM,73.4,66.2,78,29.95,10.0,SW,8.1,-,N/A,,Mostly Cloudy,230,2013-09-02 13:20:00
9:49 AM,75.2,68.0,78,29.95,10.0,West,5.8,-,N/A,,Overcast,260,2013-09-02 13:49:00
9:53 AM,75.0,68.0,79,29.91,10.0,West,8.1,-,N/A,,Overcast,270,2013-09-02 13:53:00
10:53 AM,77.0,69.1,76,29.93,10.0,WNW,6.9,-,N/A,,Overcast,290,2013-09-02 14:53:00
11:05 AM,78.8,69.8,74,29.97,10.0,West,6.9,-,N/A,,Overcast,280,2013-09-02 15:05:00
11:53 AM,78.1,69.1,74,29.93,10.0,WSW,4.6,-,N/A,,Overcast,240,2013-09-02 15:53:00
12:44 PM,78.8,69.8,74,29.96,10.0,WSW,6.9,-,0.00,,Overcast,240,2013-09-02 16:44:00
12:53 PM,79.0,71.1,77,29.92,10.0,Variable,4.6,-,0.00,,Overcast,0,2013-09-02 16:53:00
1:14 PM,80.6,69.8,70,29.95,10.0,West,4.6,-,N/A,,Mostly Cloudy,270,2013-09-02 17:14:00
1:42 PM,82.4,71.6,70,29.95,10.0,West,6.9,-,N/A,,Scattered Clouds,270,2013-09-02 17:42:00
1:53 PM,82.0,70.0,67,29.91,10.0,WSW,6.9,-,N/A,,Partly Cloudy,240,2013-09-02 17:53:00
2:53 PM,82.0,72.0,71,29.88,10.0,Variable,4.6,-,0.01,,Clear,0,2013-09-02 18:53:00
3:53 PM,82.0,71.1,69,29.86,10.0,WNW,4.6,-,0.00,,Mostly Cloudy,300,2013-09-02 19:53:00
4:53 PM,84.9,70.0,61,29.84,10.0,WNW,6.9,-,N/A,,Partly Cloudy,290,2013-09-02 20:53:00
5:53 PM,84.9,70.0,61,29.83,10.0,WSW,5.8,-,N/A,,Partly Cloudy,250,2013-09-02 21:53:00
6:53 PM,84.0,70.0,63,29.81,10.0,WSW,6.9,-,N/A,,Scattered Clouds,240,2013-09-02 22:53:00
7:53 PM,81.0,71.1,72,29.84,10.0,West,3.5,-,N/A,,Clear,260,2013-09-02 23:53:00
8:33 PM,78.8,71.6,78,29.88,10.0,Calm,Calm,-,N/A,Thunderstorm,Clear,0,2013-09-03 00:33:00
8:48 PM,78.8,71.6,78,29.89,10.0,Calm,Calm,-,N/A,,Scattered Clouds,0,2013-09-03 00:48:00
8:53 PM,78.1,71.1,79,29.85,10.0,Calm,Calm,-,N/A,,Partly Cloudy,0,2013-09-03 00:53:00
9:09 PM,77.0,71.6,83,29.89,10.0,Calm,Calm,-,N/A,Thunderstorm,Mostly Cloudy,0,2013-09-03 01:09:00
9:24 PM,75.2,69.8,83,29.89,10.0,ENE,6.9,-,0.00,Rain,Light Rain,60,2013-09-03 01:24:00
9:32 PM,73.4,68.0,83,29.89,5.0,NNE,4.6,-,0.06,Rain-Thunderstorm,Heavy Thunderstorms and Rain,20,2013-09-03 01:32:00
9:38 PM,71.6,69.8,94,29.88,1.8,Calm,Calm,-,0.23,Rain-Thunderstorm,Heavy Thunderstorms and Rain,0,2013-09-03 01:38:00
9:48 PM,71.6,69.8,94,29.89,3.0,Calm,Calm,-,0.27,Rain-Thunderstorm,Light Thunderstorms and Rain,0,2013-09-03 01:48:00
9:53 PM,72.0,69.1,91,29.86,9.0,South,5.8,-,0.27,Rain-Thunderstorm,Light Thunderstorms and Rain,180,2013-09-03 01:53:00
10:53 PM,72.0,70.0,93,29.87,6.0,SE,3.5,-,0.00,Thunderstorm,Mostly Cloudy,140,2013-09-03 02:53:00
11:22 PM,71.6,68.0,88,29.93,8.0,South,3.5,-,N/A,Thunderstorm,Mostly Cloudy,180,2013-09-03 03:22:00
11:45 PM,71.6,69.8,94,29.92,2.5,Variable,3.5,-,0.09,Rain,Rain,0,2013-09-03 03:45:00
11:53 PM,71.1,68.0,90,29.88,3.0,Calm,Calm,-,0.12,Rain-Thunderstorm,Light Thunderstorms and Rain,0,2013-09-03 03:53:00